Date String (YYYY-MM-DD hh:mm:ss) UTC,Instrument flags,absolute air pressure of the measurement (hPa),sample flow rate (lpm),inlet stack bypass flow (lpm),air temperature of the measurement (°C),ambient temperature measured by the external sensor (°C),aerosol sample conditioner tube jacket temperature (°C),OPC LED temperature (°C),internal box temperature (°C),relative humidity of the measurement (%),span deviation,mass concentration of particles derived from Lorenz-Mie calculation of OPC scattering (μg/m³),mass concentration of particles derived from Lorenz-Mie calculation of OPC scattering (μg/m³),mass concentration of particles derived from Lorenz-Mie calculation of OPC scattering (μg/m³)
DateTimeUTC,F1_M11,P_M11,Q1_M11,Q2_M11,T1_M11,T2_M11,T3_M11,T4_M11,T5_M11,U1_M11,ZSPAN_M11,X2_M11,X0_M11,X1_M11
2024-03-13 11:00:00,SystemResetWarning,0821.5,5.00,000.00,021.1,020.4,000.0,029.6,022.9,23.0,0000.0,0004.04,0008.80,0002.85
2024-03-13 11:01:00,SystemResetWarning,0821.5,5.00,000.00,021.1,020.4,000.0,029.6,022.9,23.0,0000.0,0004.02,0008.79,0002.87
2024-03-13 11:02:00,SystemResetWarning,0821.4,4.99,000.00,021.1,020.4,000.0,029.6,022.9,23.0,0000.0,0004.06,0008.98,0002.86
2024-03-13 11:03:00,SystemResetWarning,0821.4,4.99,000.00,021.1,020.4,000.0,029.6,022.9,23.0,0000.0,0004.06,0008.99,0002.85
2024-03-13 11:04:00,SystemResetWarning,0821.8,5.00,000.00,021.1,020.4,000.0,029.6,022.9,23.0,0000.0,0004.02,0008.96,0002.82
2024-03-13 11:05:00,SystemResetWarning,0821.7,5.00,000.00,021.1,020.4,000.0,029.6,023.0,23.0,0000.0,0003.98,0009.36,0002.81
2024-03-13 11:06:00,SystemResetWarning,0822.0,5.00,000.00,021.1,020.4,000.0,029.6,023.0,23.0,0000.0,0003.93,0009.11,0002.81
2024-03-13 11:07:00,SystemResetWarning,0822.0,5.00,000.00,021.1,020.4,000.0,029.6,023.0,23.1,0000.0,0003.91,0008.96,0002.80
2024-03-13 11:08:00,SystemResetWarning,0822.0,5.00,000.00,021.1,020.4,000.0,029.6,022.9,23.1,0000.0,0003.93,0008.97,0002.79
2024-03-13 11:09:00,SystemResetWarning,0822.0,5.00,000.00,021.1,020.4,000.0,029.6,022.9,23.1,0000.0,0003.94,0009.13,0002.80
2024-03-13 11:10:00,SystemResetWarning,0822.0,5.00,000.00,021.1,020.4,000.0,029.6,022.9,23.2,0000.0,0003.96,0009.37,0002.80
2024-03-13 11:11:00,SystemResetWarning,0822.0,5.00,000.00,021.1,020.4,000.0,029.6,022.9,23.2,0000.0,0003.90,0009.32,0002.80
2024-03-13 11:12:00,SystemResetWarning,0822.0,5.00,000.00,021.1,020.3,000.0,029.6,022.9,23.2,0000.0,0003.90,0009.30,0002.78
2024-03-13 11:13:00,SystemResetWarning,0822.0,5.00,000.00,021.1,020.3,000.0,029.6,022.9,23.3,0000.0,0003.84,0009.07,0002.78
2024-03-13 11:14:00,SystemResetWarning,0822.0,5.00,000.00,021.1,020.3,000.0,029.6,022.9,23.3,0000.0,0003.82,0009.06,0002.78
2024-03-13 11:15:00,SystemResetWarning,0821.9,5.00,000.00,021.1,020.3,000.0,029.6,022.9,23.3,0000.0,0003.82,0009.04,0002.79
2024-03-13 11:16:00,SystemResetWarning,0821.9,5.00,000.00,021.1,020.3,000.0,029.6,022.9,23.3,0000.0,0003.89,0008.87,0002.80
2024-03-13 11:17:00,SystemResetWarning,0821.9,5.00,000.00,021.1,020.3,000.0,029.6,022.9,23.3,0000.0,0003.94,0009.39,0002.82
2024-03-13 11:18:00,SystemResetWarning,0821.8,5.00,000.00,021.1,020.3,000.0,029.6,022.9,23.3,0000.0,0003.97,0009.45,0002.85
2024-03-13 11:19:00,SystemResetWarning,0821.9,5.00,000.00,021.1,020.3,000.0,029.6,022.9,23.3,0000.0,0003.92,0010.01,0002.86
2024-03-13 11:20:00,SystemResetWarning,0821.8,5.00,000.00,021.1,020.3,000.0,029.6,022.9,23.3,0000.0,0003.91,0009.74,0002.85
2024-03-13 11:21:00,SystemResetWarning,0821.9,5.00,000.00,021.0,020.3,000.0,029.6,022.9,23.3,0000.0,0003.87,0009.49,0002.85
2024-03-13 11:22:00,SystemResetWarning,0821.8,5.00,000.00,021.1,020.3,000.0,029.6,022.9,23.3,0000.0,0003.90,0009.41,0002.87
2024-03-13 11:23:00,SystemResetWarning,0822.0,5.00,000.00,021.0,020.3,000.0,029.6,022.9,23.3,0000.0,0003.95,0010.00,0002.89
2024-03-13 11:24:00,SystemResetWarning,0821.8,5.00,000.00,021.0,020.3,000.0,029.6,022.8,23.3,0000.0,0004.00,0010.66,0002.91
2024-03-13 11:25:00,SystemResetWarning,0822.0,5.00,000.00,021.0,020.3,000.0,029.6,022.9,23.3,0000.0,0004.03,0011.40,0002.93
2024-03-13 11:26:00,SystemResetWarning,0821.9,5.00,000.00,021.0,020.3,000.0,029.6,022.9,23.3,0000.0,0004.04,0011.42,0002.94
2024-03-13 11:27:00,SystemResetWarning,0821.9,4.99,000.00,021.0,020.3,000.0,029.6,022.8,23.3,0000.0,0004.03,0011.27,0002.98
2024-03-13 11:28:00,SystemResetWarning,0821.9,5.00,000.00,021.0,020.2,000.0,029.6,022.8,23.3,0000.0,0004.01,0011.25,0002.98
2024-03-13 11:29:00,SystemResetWarning,0822.0,5.00,000.00,021.0,020.2,000.0,029.6,022.8,23.3,0000.0,0004.05,0011.36,0002.99
2024-03-13 11:30:00,SystemResetWarning,0822.0,5.00,000.00,021.0,020.2,000.0,029.6,022.8,23.3,0000.0,0004.14,0010.85,0003.03
2024-03-13 11:31:00,SystemResetWarning,0822.0,5.00,000.00,021.0,020.2,000.0,029.6,022.8,23.3,0000.0,0004.19,0010.95,0003.08
2024-03-13 11:32:00,SystemResetWarning,0821.9,5.00,000.00,021.0,020.3,000.0,029.6,022.8,23.3,0000.0,0004.25,0011.13,0003.10
2024-03-13 11:33:00,SystemResetWarning,0822.0,5.00,000.00,021.0,020.3,000.0,029.6,022.8,23.3,0000.0,0004.23,0011.26,0003.12
2024-03-13 11:34:00,SystemResetWarning,0822.0,5.01,000.00,021.0,020.3,000.0,029.6,022.8,23.3,0000.0,0004.24,0010.88,0003.13
2024-03-13 11:35:00,SystemResetWarning,0821.9,5.00,000.00,021.0,020.3,000.0,029.6,022.8,23.2,0000.0,0004.29,0011.07,0003.14
2024-03-13 11:36:00,SystemResetWarning,0821.9,5.00,000.00,021.0,020.3,000.0,029.5,022.8,23.2,0000.0,0004.32,0010.53,0003.15
2024-03-13 11:37:00,SystemResetWarning,0821.9,5.00,000.00,021.0,020.3,000.0,029.5,022.8,23.2,0000.0,0004.36,0010.64,0003.17
2024-03-13 11:38:00,SystemResetWarning,0821.6,5.00,000.00,021.0,020.3,000.0,029.5,022.8,23.2,0000.0,0004.36,0011.05,0003.17
2024-03-13 11:39:00,SystemResetWarning,0821.6,5.00,000.00,021.0,020.3,000.0,029.5,022.8,23.2,0000.0,0004.43,0011.28,0003.19
2024-03-13 11:40:00,SystemResetWarning,0821.7,5.00,000.00,021.0,020.3,000.0,029.5,022.8,23.2,0000.0,0004.40,0011.66,0003.20
2024-03-13 11:41:00,SystemResetWarning,0821.4,4.99,000.00,021.0,020.3,000.0,029.5,022.8,23.1,0000.0,0004.36,0011.84,0003.20
2024-03-13 11:42:00,SystemResetWarning,0821.4,5.00,000.00,021.0,020.3,000.0,029.5,022.8,23.1,0000.0,0004.36,0011.94,0003.19
2024-03-13 11:43:00,SystemResetWarning,0821.8,5.00,000.00,021.0,020.3,000.0,029.5,022.8,23.2,0000.0,0004.37,0011.86,0003.20
2024-03-13 11:44:00,SystemResetWarning,0821.6,5.01,000.00,021.0,020.3,000.0,029.5,022.8,23.1,0000.0,0004.36,0011.67,0003.20
2024-03-13 11:45:00,SystemResetWarning,0821.4,5.01,000.00,021.0,020.3,000.0,029.5,022.8,23.0,0000.0,0004.35,0011.67,0003.20
2024-03-13 11:46:00,SystemResetWarning,0821.4,5.00,000.00,021.0,020.3,000.0,029.5,022.8,23.0,0000.0,0004.29,0011.04,0003.22
2024-03-13 11:47:00,SystemResetWarning,0821.4,5.00,000.00,021.0,020.3,000.0,029.5,022.8,23.1,0000.0,0004.31,0011.17,0003.22
2024-03-13 11:48:00,SystemResetWarning,0821.4,4.99,000.00,021.0,020.3,000.0,029.5,022.8,23.1,0000.0,0004.27,0011.19,0003.21
2024-03-13 11:49:00,SystemResetWarning,0821.4,4.99,000.00,021.0,020.3,000.0,029.5,022.8,23.1,0000.0,0004.28,0011.17,0003.21
2024-03-13 11:50:00,SystemResetWarning,0821.5,5.00,000.00,021.0,020.3,000.0,029.5,022.8,23.1,0000.0,0004.24,0011.11,0003.20
2024-03-13 11:51:00,SystemResetWarning,0821.7,4.99,000.00,021.0,020.3,000.0,029.5,022.8,23.1,0000.0,0004.22,0010.58,0003.20
2024-03-13 11:52:00,SystemResetWarning,0821.6,4.99,000.00,020.9,020.3,000.0,029.5,022.8,23.1,0000.0,0004.19,0010.47,0003.21
2024-03-13 11:53:00,SystemResetWarning,0821.6,5.01,000.00,020.9,020.3,000.0,029.5,022.8,23.1,0000.0,0004.17,0010.54,0003.22
2024-03-13 11:54:00,SystemResetWarning,0821.7,5.00,000.00,020.9,020.2,000.0,029.5,022.8,23.1,0000.0,0004.16,0010.50,0003.23
2024-03-13 11:55:00,SystemResetWarning,0821.9,4.99,000.00,020.9,020.2,000.0,029.5,022.8,23.1,0000.0,0004.20,0011.16,0003.23
2024-03-13 11:56:00,SystemResetWarning,0821.6,4.99,000.00,020.9,020.2,000.0,029.5,022.8,23.1,0000.0,0004.20,0011.58,0003.24
2024-03-13 11:57:00,SystemResetWarning,0821.6,5.00,000.00,020.9,020.2,000.0,029.5,022.8,23.1,0000.0,0004.23,0012.16,0003.24
2024-03-13 11:58:00,SystemResetWarning,0821.6,5.00,000.00,020.9,020.2,000.0,029.5,022.8,23.1,0000.0,0004.22,0012.50,0003.24
2024-03-13 11:59:00,SystemResetWarning,0821.5,5.00,000.00,020.9,020.2,000.0,029.5,022.7,23.1,0000.0,0004.25,0012.97,0003.25
